Time,TemperatureF,DewpointF,PressureIn,WindDirection,WindDirectionDegrees,WindSpeedMPH,WindSpeedGustMPH,Humidity,HourlyPrecipIn,Conditions,Clouds,dailyrainin,SoftwareType,DateUTC
2013-10-13 00:01:00,59.5,54.0,30.22,ESE,119,1.0,0.0,82,0.00,,,0.00,JWX,2013-10-13 04:01:00,
2013-10-13 00:06:00,59.5,54.0,30.22,ESE,120,2.0,3.0,82,0.00,,,0.00,JWX,2013-10-13 04:06:00,
2013-10-13 00:11:00,59.6,54.0,30.22,ENE,69,2.0,2.0,82,0.00,,,0.00,JWX,2013-10-13 04:11:00,
2013-10-13 00:16:00,59.6,54.4,30.22,SE,129,2.0,2.0,83,0.00,,,0.00,JWX,2013-10-13 04:16:00,
2013-10-13 00:21:00,59.6,54.4,30.22,ESE,123,4.0,10.0,83,0.00,,,0.00,JWX,2013-10-13 04:21:00,
2013-10-13 00:26:00,59.7,54.5,30.22,SE,144,5.0,0.0,83,0.00,,,0.00,JWX,2013-10-13 04:26:00,
2013-10-13 00:31:00,59.7,54.5,30.22,SE,129,3.0,3.0,83,0.00,,,0.00,JWX,2013-10-13 04:31:00,
2013-10-13 00:36:00,59.6,54.4,30.22,SE,126,2.0,2.0,83,0.00,,,0.00,JWX,2013-10-13 04:36:00,
2013-10-13 00:41:00,59.6,54.4,30.22,SE,133,2.0,2.0,83,0.00,,,0.00,JWX,2013-10-13 04:41:00,
2013-10-13 00:46:00,59.6,54.4,30.22,ESE,103,2.0,0.0,83,0.00,,,0.00,JWX,2013-10-13 04:46:00,
2013-10-13 00:51:00,59.6,54.4,30.22,SE,131,2.0,4.0,83,0.00,,,0.00,JWX,2013-10-13 04:51:00,
2013-10-13 00:56:00,59.6,54.4,30.22,SE,126,1.0,0.0,83,0.00,,,0.00,JWX,2013-10-13 04:56:00,
2013-10-13 01:02:00,59.6,54.4,30.22,ESE,117,2.0,0.0,83,0.00,,,0.00,JWX,2013-10-13 05:02:00,
2013-10-13 01:07:00,59.6,54.4,30.22,SE,128,1.0,6.0,83,0.00,,,0.00,JWX,2013-10-13 05:07:00,
2013-10-13 01:12:00,59.6,54.4,30.22,SE,124,1.0,0.0,83,0.00,,,0.00,JWX,2013-10-13 05:12:00,
2013-10-13 01:17:00,59.5,54.4,30.22,ESE,120,2.0,2.0,83,0.00,,,0.00,JWX,2013-10-13 05:17:00,
2013-10-13 01:22:00,59.6,54.4,30.22,East,101,2.0,0.0,83,0.00,,,0.00,JWX,2013-10-13 05:22:00,
2013-10-13 01:27:00,59.5,54.4,30.22,ESE,119,1.0,0.0,83,0.00,,,0.00,JWX,2013-10-13 05:27:00,
2013-10-13 01:32:00,59.5,54.4,30.23,ESE,109,1.0,0.0,83,0.00,,,0.00,JWX,2013-10-13 05:32:00,
2013-10-13 01:37:00,59.4,54.5,30.23,SE,126,1.0,1.0,84,0.00,,,0.00,JWX,2013-10-13 05:37:00,
2013-10-13 01:42:00,59.3,54.5,30.23,SE,126,1.0,0.0,84,0.00,,,0.00,JWX,2013-10-13 05:42:00,
2013-10-13 01:47:00,59.2,54.3,30.23,SE,129,0.0,1.0,84,0.00,,,0.00,JWX,2013-10-13 05:47:00,
2013-10-13 01:52:00,59.1,54.3,30.23,ESE,109,0.0,0.0,84,0.00,,,0.00,JWX,2013-10-13 05:52:00,
2013-10-13 01:57:00,59.0,54.2,30.24,ESE,115,0.0,0.0,84,0.00,,,0.00,JWX,2013-10-13 05:57:00,
2013-10-13 02:02:00,59.0,54.2,30.24,ENE,72,0.0,0.0,84,0.00,,,0.00,JWX,2013-10-13 06:02:00,
2013-10-13 02:07:00,59.0,54.2,30.24,ENE,70,0.0,0.0,84,0.00,,,0.00,JWX,2013-10-13 06:07:00,
2013-10-13 02:12:00,59.0,54.2,30.24,ENE,70,0.0,0.0,84,0.00,,,0.00,JWX,2013-10-13 06:12:00,
2013-10-13 02:17:00,58.9,54.0,30.24,ENE,70,0.0,0.0,84,0.00,,,0.00,JWX,2013-10-13 06:17:00,
2013-10-13 02:22:00,58.9,54.0,30.24,ENE,70,0.0,0.0,84,0.00,,,0.00,JWX,2013-10-13 06:22:00,
2013-10-13 02:27:00,58.9,54.0,30.24,ESE,108,0.0,0.0,84,0.00,,,0.00,JWX,2013-10-13 06:27:00,
2013-10-13 02:32:00,58.9,54.0,30.24,ESE,105,0.0,0.0,84,0.00,,,0.00,JWX,2013-10-13 06:32:00,
2013-10-13 02:37:00,58.9,54.0,30.24,ESE,105,0.0,0.0,84,0.00,,,0.00,JWX,2013-10-13 06:37:00,
2013-10-13 02:42:00,58.9,54.0,30.23,ESE,105,0.0,0.0,84,0.00,,,0.00,JWX,2013-10-13 06:42:00,
2013-10-13 02:47:00,58.9,53.7,30.23,East,101,0.0,0.0,83,0.00,,,0.00,JWX,2013-10-13 06:47:00,
2013-10-13 02:52:00,58.8,53.7,30.23,East,90,1.0,2.0,83,0.00,,,0.00,JWX,2013-10-13 06:52:00,
2013-10-13 02:57:00,58.9,53.7,30.23,ENE,76,0.0,0.0,83,0.00,,,0.00,JWX,2013-10-13 06:57:00,
2013-10-13 03:02:00,58.9,53.7,30.23,ENE,73,1.0,0.0,83,0.00,,,0.00,JWX,2013-10-13 07:02:00,
2013-10-13 03:07:00,58.8,53.7,30.23,ENE,73,0.0,0.0,83,0.00,,,0.00,JWX,2013-10-13 07:07:00,
2013-10-13 03:12:00,58.8,53.7,30.23,East,96,0.0,0.0,83,0.00,,,0.00,JWX,2013-10-13 07:12:00,
2013-10-13 03:17:00,58.8,53.7,30.23,ESE,109,0.0,0.0,83,0.00,,,0.00,JWX,2013-10-13 07:17:00,
2013-10-13 03:22:00,58.7,53.5,30.23,ESE,109,0.0,0.0,83,0.00,,,0.00,JWX,2013-10-13 07:22:00,
2013-10-13 03:27:00,58.7,53.5,30.23,ESE,109,0.0,0.0,83,0.00,,,0.00,JWX,2013-10-13 07:27:00,
2013-10-13 03:32:00,58.7,53.5,30.23,ESE,109,0.0,0.0,83,0.00,,,0.00,JWX,2013-10-13 07:32:00,
2013-10-13 03:37:00,58.7,53.5,30.24,ESE,107,0.0,0.0,83,0.00,,,0.00,JWX,2013-10-13 07:37:00,
2013-10-13 03:42:00,58.6,53.2,30.24,ESE,107,0.0,0.0,82,0.00,,,0.00,JWX,2013-10-13 07:42:00,
2013-10-13 03:47:00,58.6,53.2,30.24,ESE,105,0.0,0.0,82,0.00,,,0.00,JWX,2013-10-13 07:47:00,
2013-10-13 03:52:00,58.6,53.2,30.24,East,101,0.0,0.0,82,0.00,,,0.00,JWX,2013-10-13 07:52:00,
2013-10-13 03:57:00,58.5,53.0,30.24,East,101,0.0,0.0,82,0.00,,,0.00,JWX,2013-10-13 07:57:00,
2013-10-13 04:02:00,58.5,52.6,30.24,ENE,65,0.0,0.0,81,0.00,,,0.00,JWX,2013-10-13 08:02:00,
2013-10-13 04:07:00,58.5,52.6,30.24,ENE,66,1.0,0.0,81,0.00,,,0.00,JWX,2013-10-13 08:07:00,
2013-10-13 04:12:00,58.5,52.6,30.25,ENE,66,0.0,0.0,81,0.00,,,0.00,JWX,2013-10-13 08:12:00,
2013-10-13 04:17:00,58.5,52.6,30.24,ENE,66,0.0,0.0,81,0.00,,,0.00,JWX,2013-10-13 08:17:00,
2013-10-13 04:22:00,58.5,52.6,30.24,ENE,66,0.0,0.0,81,0.00,,,0.00,JWX,2013-10-13 08:22:00,
2013-10-13 04:27:00,58.4,52.6,30.24,East,87,0.0,4.0,81,0.00,,,0.00,JWX,2013-10-13 08:27:00,
2013-10-13 04:32:00,58.4,52.6,30.24,ESE,105,1.0,0.0,81,0.00,,,0.00,JWX,2013-10-13 08:32:00,
2013-10-13 04:37:00,58.4,52.6,30.24,ENE,69,1.0,1.0,81,0.00,,,0.00,JWX,2013-10-13 08:37:00,
2013-10-13 04:42:00,58.3,52.1,30.24,ESE,108,1.0,0.0,80,0.00,,,0.00,JWX,2013-10-13 08:42:00,
2013-10-13 04:47:00,58.3,52.1,30.24,ESE,102,1.0,3.0,80,0.00,,,0.00,JWX,2013-10-13 08:47:00,
2013-10-13 04:52:00,58.3,52.1,30.24,SE,127,1.0,0.0,80,0.00,,,0.00,JWX,2013-10-13 08:52:00,
2013-10-13 04:57:00,58.3,52.1,30.24,ESE,110,1.0,0.0,80,0.00,,,0.00,JWX,2013-10-13 08:57:00,
2013-10-13 05:02:00,58.2,52.1,30.24,East,93,1.0,0.0,80,0.00,,,0.00,JWX,2013-10-13 09:02:00,
2013-10-13 05:07:00,58.2,52.1,30.24,ESE,119,1.0,0.0,80,0.00,,,0.00,JWX,2013-10-13 09:07:00,
2013-10-13 05:12:00,58.1,52.0,30.24,SE,128,1.0,2.0,80,0.00,,,0.00,JWX,2013-10-13 09:12:00,
2013-10-13 05:17:00,58.1,51.6,30.24,East,99,1.0,0.0,79,0.00,,,0.00,JWX,2013-10-13 09:17:00,
2013-10-13 05:22:00,58.0,51.4,30.24,SE,137,1.0,0.0,79,0.00,,,0.00,JWX,2013-10-13 09:22:00,
2013-10-13 05:27:00,58.0,51.4,30.24,ESE,103,1.0,2.0,79,0.00,,,0.00,JWX,2013-10-13 09:27:00,
2013-10-13 05:32:00,57.9,51.4,30.24,ESE,102,1.0,0.0,79,0.00,,,0.00,JWX,2013-10-13 09:32:00,
2013-10-13 05:37:00,57.9,51.4,30.24,ESE,123,2.0,0.0,79,0.00,,,0.00,JWX,2013-10-13 09:37:00,
2013-10-13 05:42:00,57.8,51.3,30.24,East,95,1.0,3.0,79,0.00,,,0.00,JWX,2013-10-13 09:42:00,
2013-10-13 05:47:00,57.8,51.3,30.25,ESE,103,2.0,0.0,79,0.00,,,0.00,JWX,2013-10-13 09:47:00,
2013-10-13 05:52:00,57.8,51.3,30.25,ESE,113,1.0,0.0,79,0.00,,,0.00,JWX,2013-10-13 09:52:00,
2013-10-13 05:57:00,57.7,50.9,30.25,ESE,113,1.0,2.0,78,0.00,,,0.00,JWX,2013-10-13 09:57:00,
2013-10-13 06:02:00,57.7,50.9,30.25,SE,127,1.0,1.0,78,0.00,,,0.00,JWX,2013-10-13 10:02:00,
2013-10-13 06:07:00,57.7,50.9,30.25,East,99,1.0,0.0,78,0.00,,,0.00,JWX,2013-10-13 10:07:00,
2013-10-13 06:12:00,57.7,50.9,30.26,ESE,122,1.0,0.0,78,0.00,,,0.00,JWX,2013-10-13 10:12:00,
2013-10-13 06:17:00,57.7,50.9,30.26,ESE,108,0.0,0.0,78,0.00,,,0.00,JWX,2013-10-13 10:17:00,
2013-10-13 06:22:00,57.6,50.8,30.26,ESE,122,1.0,0.0,78,0.00,,,0.00,JWX,2013-10-13 10:22:00,
2013-10-13 06:27:00,57.6,50.8,30.26,South,176,1.0,0.0,78,0.00,,,0.00,JWX,2013-10-13 10:27:00,
2013-10-13 06:32:00,57.6,50.8,30.26,SSE,152,0.0,0.0,78,0.00,,,0.00,JWX,2013-10-13 10:32:00,
2013-10-13 06:37:00,57.5,51.1,30.27,SSE,152,0.0,0.0,79,0.00,,,0.00,JWX,2013-10-13 10:37:00,
2013-10-13 06:42:00,57.5,50.8,30.27,SSE,152,0.0,0.0,78,0.00,,,0.00,JWX,2013-10-13 10:42:00,
2013-10-13 06:47:00,57.5,50.8,30.27,SSE,152,0.0,0.0,78,0.00,,,0.00,JWX,2013-10-13 10:47:00,
2013-10-13 06:52:00,57.4,50.6,30.27,SSE,150,0.0,0.0,78,0.00,,,0.00,JWX,2013-10-13 10:52:00,
2013-10-13 06:57:00,57.4,50.6,30.27,SSE,149,0.0,1.0,78,0.00,,,0.00,JWX,2013-10-13 10:57:00,
2013-10-13 07:02:00,57.4,50.2,30.27,East,89,0.0,0.0,77,0.00,,,0.00,JWX,2013-10-13 11:02:00,
2013-10-13 07:07:00,57.4,50.6,30.28,East,91,0.0,0.0,78,0.00,,,0.00,JWX,2013-10-13 11:07:00,
2013-10-13 07:12:00,57.3,50.6,30.28,East,92,0.0,0.0,78,0.00,,,0.00,JWX,2013-10-13 11:12:00,
2013-10-13 07:17:00,57.3,50.6,30.28,East,92,0.0,0.0,78,0.00,,,0.00,JWX,2013-10-13 11:17:00,
2013-10-13 07:22:00,57.2,50.4,30.28,East,96,0.0,0.0,78,0.00,,,0.00,JWX,2013-10-13 11:22:00,
2013-10-13 07:27:00,57.2,50.1,30.28,SE,124,0.0,0.0,77,0.00,,,0.00,JWX,2013-10-13 11:27:00,
2013-10-13 07:32:00,57.1,50.2,30.28,ESE,121,0.0,0.0,78,0.00,,,0.00,JWX,2013-10-13 11:32:00,
2013-10-13 07:37:00,57.1,50.2,30.28,East,96,0.0,3.0,78,0.00,,,0.00,JWX,2013-10-13 11:37:00,
2013-10-13 07:42:00,57.1,49.9,30.29,SE,127,1.0,0.0,77,0.00,,,0.00,JWX,2013-10-13 11:42:00,
2013-10-13 07:47:00,57.2,49.7,30.29,SE,129,2.0,0.0,76,0.00,,,0.00,JWX,2013-10-13 11:47:00,
2013-10-13 07:52:00,57.2,49.7,30.29,ESE,123,1.0,0.0,76,0.00,,,0.00,JWX,2013-10-13 11:52:00,
2013-10-13 07:57:00,57.2,50.1,30.29,ESE,123,0.0,0.0,77,0.00,,,0.00,JWX,2013-10-13 11:57:00,
2013-10-13 08:02:00,57.3,50.2,30.29,ESE,113,0.0,0.0,77,0.00,,,0.00,JWX,2013-10-13 12:02:00,
2013-10-13 08:07:00,57.3,49.9,30.29,SE,132,0.0,2.0,76,0.00,,,0.00,JWX,2013-10-13 12:07:00,
2013-10-13 08:12:00,57.4,49.9,30.29,ESE,108,1.0,0.0,76,0.00,,,0.00,JWX,2013-10-13 12:12:00,
2013-10-13 08:17:00,57.4,49.9,30.30,ESE,107,0.0,1.0,76,0.00,,,0.00,JWX,2013-10-13 12:17:00,
2013-10-13 08:22:00,57.5,50.1,30.30,ESE,110,1.0,2.0,76,0.00,,,0.00,JWX,2013-10-13 12:22:00,
2013-10-13 08:27:00,57.4,49.5,30.30,SE,125,1.0,1.0,75,0.00,,,0.00,JWX,2013-10-13 12:27:00,
2013-10-13 08:32:00,57.4,49.9,30.30,ESE,115,1.0,0.0,76,0.00,,,0.00,JWX,2013-10-13 12:32:00,
2013-10-13 08:37:00,57.4,49.5,30.30,SE,144,1.0,0.0,75,0.00,,,0.00,JWX,2013-10-13 12:37:00,
2013-10-13 08:42:00,57.4,49.2,30.30,East,100,2.0,2.0,74,0.00,,,0.00,JWX,2013-10-13 12:42:00,
2013-10-13 08:47:00,57.4,49.5,30.31,ESE,118,1.0,2.0,75,0.00,,,0.00,JWX,2013-10-13 12:47:00,
2013-10-13 08:52:00,57.4,49.5,30.31,ESE,122,1.0,0.0,75,0.00,,,0.00,JWX,2013-10-13 12:52:00,
2013-10-13 08:57:00,57.4,49.5,30.31,SE,126,1.0,0.0,75,0.00,,,0.00,JWX,2013-10-13 12:57:00,
2013-10-13 09:02:00,57.5,49.3,30.31,ESE,121,0.0,0.0,74,0.00,,,0.00,JWX,2013-10-13 13:02:00,
2013-10-13 09:07:00,57.6,49.7,30.31,SE,144,0.0,5.0,75,0.00,,,0.00,JWX,2013-10-13 13:07:00,
2013-10-13 09:12:00,57.7,49.9,30.32,SE,126,1.0,0.0,75,0.00,,,0.00,JWX,2013-10-13 13:12:00,
2013-10-13 09:17:00,57.7,49.5,30.32,ESE,105,1.0,0.0,74,0.00,,,0.00,JWX,2013-10-13 13:17:00,
2013-10-13 09:22:00,57.7,49.9,30.32,ESE,119,1.0,0.0,75,0.00,,,0.00,JWX,2013-10-13 13:22:00,
2013-10-13 09:27:00,57.7,49.9,30.32,SE,141,1.0,0.0,75,0.00,,,0.00,JWX,2013-10-13 13:27:00,
2013-10-13 09:32:00,57.7,49.5,30.32,ESE,118,1.0,2.0,74,0.00,,,0.00,JWX,2013-10-13 13:32:00,
2013-10-13 09:37:00,57.7,49.5,30.32,SE,131,1.0,2.0,74,0.00,,,0.00,JWX,2013-10-13 13:37:00,
2013-10-13 09:42:00,57.8,49.9,30.32,SE,128,1.0,4.0,75,0.00,,,0.00,JWX,2013-10-13 13:42:00,
2013-10-13 09:47:00,57.9,49.7,30.32,SE,129,2.0,6.0,74,0.00,,,0.00,JWX,2013-10-13 13:47:00,
2013-10-13 09:52:00,57.9,49.7,30.32,SE,128,3.0,0.0,74,0.00,,,0.00,JWX,2013-10-13 13:52:00,
2013-10-13 09:57:00,57.8,49.5,30.32,SE,142,2.0,2.0,74,0.00,,,0.00,JWX,2013-10-13 13:57:00,
2013-10-13 10:02:00,57.8,49.5,30.32,SE,127,2.0,0.0,74,0.00,,,0.00,JWX,2013-10-13 14:02:00,
2013-10-13 10:07:00,57.9,50.0,30.32,ESE,113,2.0,0.0,75,0.00,,,0.00,JWX,2013-10-13 14:07:00,
2013-10-13 10:12:00,58.0,49.7,30.32,SE,141,1.0,1.0,74,0.00,,,0.00,JWX,2013-10-13 14:12:00,
2013-10-13 10:17:00,58.1,50.9,30.32,SE,144,1.0,3.0,77,0.00,,,0.00,JWX,2013-10-13 14:17:00,
2013-10-13 10:22:00,58.2,50.0,30.32,SE,142,1.0,1.0,74,0.00,,,0.00,JWX,2013-10-13 14:22:00,
2013-10-13 10:27:00,58.1,49.5,30.32,SE,125,2.0,4.0,73,0.00,,,0.00,JWX,2013-10-13 14:27:00,
2013-10-13 10:32:00,58.1,49.9,30.32,SE,126,3.0,3.0,74,0.00,,,0.00,JWX,2013-10-13 14:32:00,
2013-10-13 10:37:00,58.0,49.7,30.32,SSE,164,3.0,3.0,74,0.00,,,0.00,JWX,2013-10-13 14:37:00,
2013-10-13 10:42:00,58.1,49.9,30.32,SSE,158,2.0,2.0,74,0.00,,,0.00,JWX,2013-10-13 14:42:00,
2013-10-13 10:47:00,58.2,50.0,30.32,South,185,2.0,0.0,74,0.00,,,0.00,JWX,2013-10-13 14:47:00,
2013-10-13 10:52:00,58.4,50.6,30.32,SSE,155,1.0,1.0,75,0.00,,,0.00,JWX,2013-10-13 14:52:00,
2013-10-13 10:57:00,58.6,50.4,30.32,SE,132,1.0,3.0,74,0.00,,,0.00,JWX,2013-10-13 14:57:00,
2013-10-13 11:02:00,58.7,50.4,30.32,SE,141,2.0,0.0,74,0.00,,,0.00,JWX,2013-10-13 15:02:00,
2013-10-13 11:07:00,58.9,49.8,30.32,SE,125,2.0,0.0,72,0.00,,,0.00,JWX,2013-10-13 15:07:00,
2013-10-13 11:12:00,59.0,50.4,30.32,SE,134,2.0,0.0,73,0.00,,,0.00,JWX,2013-10-13 15:12:00,
2013-10-13 11:17:00,59.3,50.7,30.32,SE,139,1.0,0.0,73,0.00,,,0.00,JWX,2013-10-13 15:17:00,
2013-10-13 11:22:00,59.6,50.9,30.32,East,96,1.0,0.0,73,0.00,,,0.00,JWX,2013-10-13 15:22:00,
2013-10-13 11:27:00,60.0,50.6,30.32,SE,132,1.0,0.0,71,0.00,,,0.00,JWX,2013-10-13 15:27:00,
2013-10-13 11:32:00,60.5,51.0,30.32,ENE,78,1.0,1.0,71,0.00,,,0.00,JWX,2013-10-13 15:32:00,
2013-10-13 11:37:00,60.8,50.6,30.32,SE,124,1.0,1.0,69,0.00,,,0.00,JWX,2013-10-13 15:37:00,
2013-10-13 11:42:00,61.1,51.3,30.31,ESE,112,1.0,2.0,70,0.00,,,0.00,JWX,2013-10-13 15:42:00,
2013-10-13 11:47:00,61.3,51.5,30.32,SE,130,1.0,0.0,70,0.00,,,0.00,JWX,2013-10-13 15:47:00,
2013-10-13 11:52:00,61.6,51.3,30.32,ESE,120,1.0,3.0,69,0.00,,,0.00,JWX,2013-10-13 15:52:00,
2013-10-13 11:57:00,61.8,51.6,30.32,East,84,0.0,0.0,69,0.00,,,0.00,JWX,2013-10-13 15:57:00,
2013-10-13 12:02:00,62.2,51.5,30.32,SE,125,1.0,1.0,68,0.00,,,0.00,JWX,2013-10-13 16:02:00,
2013-10-13 12:07:00,62.5,52.1,30.32,ESE,123,1.0,0.0,69,0.00,,,0.00,JWX,2013-10-13 16:07:00,
2013-10-13 12:12:00,63.1,52.4,30.32,ESE,110,0.0,3.0,68,0.00,,,0.00,JWX,2013-10-13 16:12:00,
2013-10-13 12:17:00,63.3,51.3,30.32,ENE,71,0.0,0.0,65,0.00,,,0.00,JWX,2013-10-13 16:17:00,
2013-10-13 12:22:00,63.6,52.1,30.32,ESE,102,1.0,0.0,66,0.00,,,0.00,JWX,2013-10-13 16:22:00,
2013-10-13 12:27:00,63.9,51.0,30.31,SE,136,1.0,1.0,63,0.00,,,0.00,JWX,2013-10-13 16:27:00,
2013-10-13 12:32:00,63.8,51.0,30.31,SSE,147,2.0,0.0,63,0.00,,,0.00,JWX,2013-10-13 16:32:00,
2013-10-13 12:37:00,63.7,50.8,30.31,ESE,112,2.0,0.0,63,0.00,,,0.00,JWX,2013-10-13 16:37:00,
2013-10-13 12:42:00,63.8,51.0,30.31,SSE,147,1.0,0.0,63,0.00,,,0.00,JWX,2013-10-13 16:42:00,
2013-10-13 12:47:00,64.0,52.0,30.31,SE,140,1.0,0.0,65,0.00,,,0.00,JWX,2013-10-13 16:47:00,
2013-10-13 12:52:00,64.2,51.8,30.30,SE,146,0.0,0.0,64,0.00,,,0.00,JWX,2013-10-13 16:52:00,
2013-10-13 12:57:00,64.3,51.4,30.30,South,173,1.0,1.0,63,0.00,,,0.00,JWX,2013-10-13 16:57:00,
2013-10-13 13:02:00,64.2,50.9,30.30,SE,146,1.0,0.0,62,0.00,,,0.00,JWX,2013-10-13 17:02:00,
2013-10-13 13:07:00,64.2,51.8,30.30,SE,146,1.0,0.0,64,0.00,,,0.00,JWX,2013-10-13 17:07:00,
2013-10-13 13:12:00,64.5,51.3,30.29,SE,146,0.0,0.0,62,0.00,,,0.00,JWX,2013-10-13 17:12:00,
2013-10-13 13:17:00,64.9,52.0,30.29,SSE,158,0.0,0.0,63,0.00,,,0.00,JWX,2013-10-13 17:17:00,
2013-10-13 13:22:00,65.1,50.9,30.29,SE,131,0.0,0.0,60,0.00,,,0.00,JWX,2013-10-13 17:22:00,
2013-10-13 13:27:00,65.3,51.1,30.29,SSE,160,1.0,0.0,60,0.00,,,0.00,JWX,2013-10-13 17:27:00,
2013-10-13 13:32:00,65.6,52.3,30.29,SSE,156,1.0,0.0,62,0.00,,,0.00,JWX,2013-10-13 17:32:00,
2013-10-13 13:37:00,66.2,51.9,30.29,SE,144,1.0,3.0,60,0.00,,,0.00,JWX,2013-10-13 17:37:00,
2013-10-13 13:42:00,66.6,51.8,30.29,SE,139,1.0,0.0,59,0.00,,,0.00,JWX,2013-10-13 17:42:00,
2013-10-13 13:47:00,66.8,52.4,30.29,SSE,147,1.0,0.0,60,0.00,,,0.00,JWX,2013-10-13 17:47:00,
2013-10-13 13:52:00,66.9,52.1,30.29,SSE,160,1.0,7.0,59,0.00,,,0.00,JWX,2013-10-13 17:52:00,
2013-10-13 13:57:00,66.8,51.5,30.28,SSE,148,2.0,0.0,58,0.00,,,0.00,JWX,2013-10-13 17:57:00,
2013-10-13 14:02:00,66.8,51.9,30.28,SSE,159,2.0,0.0,59,0.00,,,0.00,JWX,2013-10-13 18:02:00,
2013-10-13 14:07:00,66.8,51.9,30.28,SSE,155,1.0,0.0,59,0.00,,,0.00,JWX,2013-10-13 18:07:00,
2013-10-13 14:12:00,67.0,51.2,30.28,SSE,156,1.0,0.0,57,0.00,,,0.00,JWX,2013-10-13 18:12:00,
2013-10-13 14:17:00,67.3,51.5,30.28,SSE,155,0.0,0.0,57,0.00,,,0.00,JWX,2013-10-13 18:17:00,
2013-10-13 14:22:00,67.5,51.7,30.27,SSE,157,0.0,0.0,57,0.00,,,0.00,JWX,2013-10-13 18:22:00,
2013-10-13 14:27:00,67.8,52.0,30.27,SSE,157,0.0,0.0,57,0.00,,,0.00,JWX,2013-10-13 18:27:00,
2013-10-13 14:32:00,68.1,52.4,30.27,SE,144,1.0,0.0,57,0.00,,,0.00,JWX,2013-10-13 18:32:00,
2013-10-13 14:37:00,68.3,52.0,30.27,SSE,157,1.0,0.0,56,0.00,,,0.00,JWX,2013-10-13 18:37:00,
2013-10-13 14:42:00,68.3,51.6,30.27,SE,146,1.0,4.0,55,0.00,,,0.00,JWX,2013-10-13 18:42:00,
2013-10-13 14:47:00,68.1,51.4,30.27,East,96,1.0,0.0,55,0.00,,,0.00,JWX,2013-10-13 18:47:00,
2013-10-13 14:52:00,68.3,51.1,30.27,ESE,121,1.0,1.0,54,0.00,,,0.00,JWX,2013-10-13 18:52:00,
2013-10-13 14:57:00,68.3,51.1,30.27,ESE,118,1.0,0.0,54,0.00,,,0.00,JWX,2013-10-13 18:57:00,
2013-10-13 15:02:00,68.5,50.7,30.27,ESE,119,0.0,0.0,53,0.00,,,0.00,JWX,2013-10-13 19:02:00,
2013-10-13 15:07:00,68.6,51.7,30.27,SSE,153,1.0,0.0,55,0.00,,,0.00,JWX,2013-10-13 19:07:00,
2013-10-13 15:12:00,68.8,51.4,30.27,SE,140,1.0,0.0,54,0.00,,,0.00,JWX,2013-10-13 19:12:00,
2013-10-13 15:17:00,68.7,50.9,30.27,SE,139,1.0,2.0,53,0.00,,,0.00,JWX,2013-10-13 19:17:00,
2013-10-13 15:22:00,68.6,51.2,30.27,SE,144,1.0,0.0,54,0.00,,,0.00,JWX,2013-10-13 19:22:00,
2013-10-13 15:27:00,68.5,50.7,30.27,SE,145,1.0,1.0,53,0.00,,,0.00,JWX,2013-10-13 19:27:00,
2013-10-13 15:32:00,68.5,51.2,30.27,SSE,156,0.0,0.0,54,0.00,,,0.00,JWX,2013-10-13 19:32:00,
2013-10-13 15:37:00,68.4,51.1,30.27,South,182,1.0,3.0,54,0.00,,,0.00,JWX,2013-10-13 19:37:00,
2013-10-13 15:42:00,68.3,50.6,30.27,South,190,2.0,10.0,53,0.00,,,0.00,JWX,2013-10-13 19:42:00,
2013-10-13 15:47:00,68.1,51.4,30.27,South,172,2.0,2.0,55,0.00,,,0.00,JWX,2013-10-13 19:47:00,
2013-10-13 15:52:00,68.0,51.7,30.27,SSE,163,1.0,3.0,56,0.00,,,0.00,JWX,2013-10-13 19:52:00,
2013-10-13 15:57:00,67.9,50.6,30.27,SSE,162,1.0,0.0,54,0.00,,,0.00,JWX,2013-10-13 19:57:00,
2013-10-13 16:02:00,67.7,50.9,30.27,SSE,161,2.0,2.0,55,0.00,,,0.00,JWX,2013-10-13 20:02:00,
2013-10-13 16:07:00,67.5,51.2,30.27,SSW,196,2.0,0.0,56,0.00,,,0.00,JWX,2013-10-13 20:07:00,
2013-10-13 16:12:00,67.4,51.2,30.27,South,189,1.0,1.0,56,0.00,,,0.00,JWX,2013-10-13 20:12:00,
2013-10-13 16:17:00,67.3,51.0,30.27,SSE,161,2.0,0.0,56,0.00,,,0.00,JWX,2013-10-13 20:17:00,
2013-10-13 16:22:00,67.1,51.3,30.27,SSE,155,2.0,3.0,57,0.00,,,0.00,JWX,2013-10-13 20:22:00,
2013-10-13 16:27:00,67.1,51.8,30.27,SSE,165,1.0,2.0,58,0.00,,,0.00,JWX,2013-10-13 20:27:00,
2013-10-13 16:32:00,66.9,51.7,30.27,SSE,166,2.0,0.0,58,0.00,,,0.00,JWX,2013-10-13 20:32:00,
2013-10-13 16:37:00,66.8,51.5,30.27,SSE,158,2.0,2.0,58,0.00,,,0.00,JWX,2013-10-13 20:37:00,
2013-10-13 16:42:00,66.8,50.5,30.27,SSE,149,1.0,0.0,56,0.00,,,0.00,JWX,2013-10-13 20:42:00,
2013-10-13 16:47:00,66.7,51.5,30.27,SSE,148,1.0,0.0,58,0.00,,,0.00,JWX,2013-10-13 20:47:00,
2013-10-13 16:52:00,66.6,51.8,30.27,SSE,150,1.0,2.0,59,0.00,,,0.00,JWX,2013-10-13 20:52:00,
2013-10-13 16:57:00,66.5,51.3,30.27,SSE,149,1.0,4.0,58,0.00,,,0.00,JWX,2013-10-13 20:57:00,
2013-10-13 17:02:00,66.2,51.4,30.27,SE,145,2.0,5.0,59,0.00,,,0.00,JWX,2013-10-13 21:02:00,
2013-10-13 17:07:00,65.9,51.6,30.27,SSE,158,2.0,4.0,60,0.00,,,0.00,JWX,2013-10-13 21:07:00,
2013-10-13 17:12:00,65.7,51.4,30.28,South,172,2.0,0.0,60,0.00,,,0.00,JWX,2013-10-13 21:12:00,
2013-10-13 17:17:00,65.6,51.8,30.28,SSE,154,2.0,0.0,61,0.00,,,0.00,JWX,2013-10-13 21:17:00,
2013-10-13 17:22:00,65.5,51.7,30.28,SSE,154,1.0,4.0,61,0.00,,,0.00,JWX,2013-10-13 21:22:00,
2013-10-13 17:27:00,65.3,51.9,30.28,SSE,150,1.0,2.0,62,0.00,,,0.00,JWX,2013-10-13 21:27:00,
2013-10-13 17:32:00,65.0,51.6,30.28,SSE,162,2.0,2.0,62,0.00,,,0.00,JWX,2013-10-13 21:32:00,
2013-10-13 17:37:00,64.7,51.0,30.28,SSE,160,3.0,3.0,61,0.00,,,0.00,JWX,2013-10-13 21:37:00,
2013-10-13 17:42:00,64.4,51.5,30.28,SSE,147,3.0,3.0,63,0.00,,,0.00,JWX,2013-10-13 21:42:00,
2013-10-13 17:47:00,64.1,51.6,30.28,SSE,151,3.0,0.0,64,0.00,,,0.00,JWX,2013-10-13 21:47:00,
2013-10-13 17:52:00,63.9,51.4,30.28,SSE,152,3.0,4.0,64,0.00,,,0.00,JWX,2013-10-13 21:52:00,
2013-10-13 17:57:00,63.7,51.7,30.29,SSE,157,2.0,2.0,65,0.00,,,0.00,JWX,2013-10-13 21:57:00,
2013-10-13 18:02:00,63.6,51.7,30.29,SSE,153,1.0,0.0,65,0.00,,,0.00,JWX,2013-10-13 22:02:00,
2013-10-13 18:07:00,63.4,51.3,30.29,SSE,160,2.0,3.0,65,0.00,,,0.00,JWX,2013-10-13 22:07:00,
2013-10-13 18:12:00,63.3,51.8,30.29,SSE,159,1.0,0.0,66,0.00,,,0.00,JWX,2013-10-13 22:12:00,
2013-10-13 18:17:00,63.1,51.6,30.29,SSE,157,1.0,2.0,66,0.00,,,0.00,JWX,2013-10-13 22:17:00,
2013-10-13 18:22:00,63.0,51.8,30.29,SSE,152,2.0,2.0,67,0.00,,,0.00,JWX,2013-10-13 22:22:00,
2013-10-13 18:27:00,62.9,51.8,30.29,SSE,154,2.0,0.0,67,0.00,,,0.00,JWX,2013-10-13 22:27:00,
2013-10-13 18:32:00,62.8,51.7,30.29,SSE,154,1.0,0.0,67,0.00,,,0.00,JWX,2013-10-13 22:32:00,
2013-10-13 18:37:00,62.6,51.9,30.29,SSE,155,1.0,0.0,68,0.00,,,0.00,JWX,2013-10-13 22:37:00,
2013-10-13 18:42:00,62.4,51.7,30.29,SSE,158,1.0,0.0,68,0.00,,,0.00,JWX,2013-10-13 22:42:00,
2013-10-13 18:47:00,62.3,51.9,30.29,SSE,155,2.0,2.0,69,0.00,,,0.00,JWX,2013-10-13 22:47:00,
2013-10-13 18:52:00,62.2,51.9,30.29,South,169,2.0,0.0,69,0.00,,,0.00,JWX,2013-10-13 22:52:00,
2013-10-13 18:57:00,62.0,52.2,30.29,SSE,168,1.0,1.0,70,0.00,,,0.00,JWX,2013-10-13 22:57:00,
2013-10-13 19:02:00,61.6,51.6,30.30,SSE,165,1.0,0.0,70,0.00,,,0.00,JWX,2013-10-13 23:02:00,
2013-10-13 19:07:00,61.2,51.7,30.30,SSE,161,1.0,4.0,71,0.00,,,0.00,JWX,2013-10-13 23:07:00,
2013-10-13 19:12:00,60.8,51.7,30.30,SSE,161,1.0,0.0,72,0.00,,,0.00,JWX,2013-10-13 23:12:00,
2013-10-13 19:17:00,60.3,51.6,30.30,SSE,159,1.0,0.0,73,0.00,,,0.00,JWX,2013-10-13 23:17:00,
2013-10-13 19:22:00,60.0,51.4,30.30,SSE,156,1.0,0.0,73,0.00,,,0.00,JWX,2013-10-13 23:22:00,
2013-10-13 19:27:00,59.7,51.4,30.30,SSE,153,1.0,1.0,74,0.00,,,0.00,JWX,2013-10-13 23:27:00,
2013-10-13 19:32:00,59.5,51.6,30.30,SSE,153,1.0,0.0,75,0.00,,,0.00,JWX,2013-10-13 23:32:00,
2013-10-13 19:37:00,59.2,51.3,30.30,SSE,153,1.0,0.0,75,0.00,,,0.00,JWX,2013-10-13 23:37:00,
2013-10-13 19:42:00,59.0,51.1,30.30,SSE,151,1.0,0.0,75,0.00,,,0.00,JWX,2013-10-13 23:42:00,
2013-10-13 19:47:00,58.7,51.1,30.30,SSE,151,1.0,1.0,76,0.00,,,0.00,JWX,2013-10-13 23:47:00,
2013-10-13 19:52:00,58.4,51.3,30.31,SSE,151,0.0,0.0,77,0.00,,,0.00,JWX,2013-10-13 23:52:00,
2013-10-13 19:57:00,58.0,50.8,30.30,SSE,151,0.0,0.0,77,0.00,,,0.00,JWX,2013-10-13 23:57:00,
2013-10-13 20:02:00,57.7,50.9,30.31,SSE,151,0.0,0.0,78,0.00,,,0.00,JWX,2013-10-14 00:02:00,
2013-10-13 20:07:00,57.5,50.8,30.31,SSE,151,0.0,0.0,78,0.00,,,0.00,JWX,2013-10-14 00:07:00,
2013-10-13 20:12:00,57.3,50.9,30.31,SSE,151,0.0,0.0,79,0.00,,,0.00,JWX,2013-10-14 00:12:00,
2013-10-13 20:17:00,57.1,50.6,30.31,SSE,151,0.0,0.0,79,0.00,,,0.00,JWX,2013-10-14 00:17:00,
2013-10-13 20:22:00,57.0,50.6,30.31,SSE,151,0.0,0.0,79,0.00,,,0.00,JWX,2013-10-14 00:22:00,
2013-10-13 20:27:00,57.0,50.6,30.31,SSE,151,0.0,0.0,79,0.00,,,0.00,JWX,2013-10-14 00:27:00,
2013-10-13 20:32:00,57.0,50.6,30.31,SSE,151,0.0,0.0,79,0.00,,,0.00,JWX,2013-10-14 00:32:00,
2013-10-13 20:37:00,56.9,50.7,30.31,SSE,151,0.0,0.0,80,0.00,,,0.00,JWX,2013-10-14 00:37:00,
2013-10-13 20:42:00,56.9,50.7,30.31,SSE,151,0.0,0.0,80,0.00,,,0.00,JWX,2013-10-14 00:42:00,
2013-10-13 20:47:00,56.7,50.6,30.31,SSE,151,0.0,0.0,80,0.00,,,0.00,JWX,2013-10-14 00:47:00,
2013-10-13 20:52:00,56.6,50.6,30.31,SSE,151,0.0,0.0,80,0.00,,,0.00,JWX,2013-10-14 00:52:00,
2013-10-13 20:57:00,56.5,50.4,30.31,SSE,151,0.0,0.0,80,0.00,,,0.00,JWX,2013-10-14 00:57:00,
2013-10-13 21:02:00,56.4,50.4,30.31,SSE,151,0.0,0.0,80,0.00,,,0.00,JWX,2013-10-14 01:02:00,
2013-10-13 21:07:00,56.4,50.4,30.32,SSE,151,0.0,0.0,80,0.00,,,0.00,JWX,2013-10-14 01:07:00,
2013-10-13 21:12:00,56.3,50.2,30.32,SSE,151,0.0,0.0,80,0.00,,,0.00,JWX,2013-10-14 01:12:00,
2013-10-13 21:17:00,56.2,50.0,30.32,SSE,151,0.0,0.0,80,0.00,,,0.00,JWX,2013-10-14 01:17:00,
2013-10-13 21:22:00,56.1,50.4,30.32,SSE,151,0.0,0.0,81,0.00,,,0.00,JWX,2013-10-14 01:22:00,
2013-10-13 21:27:00,56.0,50.2,30.32,SSE,151,0.0,0.0,81,0.00,,,0.00,JWX,2013-10-14 01:27:00,
2013-10-13 21:32:00,55.9,50.2,30.32,SSE,151,0.0,0.0,81,0.00,,,0.00,JWX,2013-10-14 01:32:00,
2013-10-13 21:37:00,55.8,50.0,30.32,SSE,151,0.0,0.0,81,0.00,,,0.00,JWX,2013-10-14 01:37:00,
2013-10-13 21:42:00,55.7,50.0,30.32,SSE,151,0.0,0.0,81,0.00,,,0.00,JWX,2013-10-14 01:42:00,
2013-10-13 21:47:00,55.6,49.8,30.33,SSE,151,0.0,0.0,81,0.00,,,0.00,JWX,2013-10-14 01:47:00,
2013-10-13 21:52:00,55.5,49.8,30.33,SSE,151,0.0,0.0,81,0.00,,,0.00,JWX,2013-10-14 01:52:00,
2013-10-13 21:57:00,55.3,49.5,30.32,SSE,151,0.0,0.0,81,0.00,,,0.00,JWX,2013-10-14 01:57:00,
2013-10-13 22:02:00,55.1,49.6,30.33,SSE,151,0.0,0.0,82,0.00,,,0.00,JWX,2013-10-14 02:02:00,
2013-10-13 22:07:00,55.1,49.6,30.33,SSE,151,0.0,0.0,82,0.00,,,0.00,JWX,2013-10-14 02:07:00,
2013-10-13 22:12:00,55.1,49.6,30.33,SSE,151,0.0,0.0,82,0.00,,,0.00,JWX,2013-10-14 02:12:00,
2013-10-13 22:17:00,55.1,49.6,30.33,SSE,151,0.0,0.0,82,0.00,,,0.00,JWX,2013-10-14 02:17:00,
2013-10-13 22:22:00,55.0,49.6,30.33,SSE,151,0.0,0.0,82,0.00,,,0.00,JWX,2013-10-14 02:22:00,
2013-10-13 22:27:00,54.8,49.5,30.33,SSE,151,0.0,0.0,82,0.00,,,0.00,JWX,2013-10-14 02:27:00,
2013-10-13 22:32:00,54.5,49.4,30.33,SSE,151,0.0,0.0,83,0.00,,,0.00,JWX,2013-10-14 02:32:00,
2013-10-13 22:37:00,54.1,49.1,30.33,SSE,151,0.0,0.0,83,0.00,,,0.00,JWX,2013-10-14 02:37:00,
2013-10-13 22:42:00,53.7,49.1,30.33,SSE,151,1.0,0.0,84,0.00,,,0.00,JWX,2013-10-14 02:42:00,
2013-10-13 22:47:00,53.6,49.2,30.33,SSE,151,1.0,1.0,85,0.00,,,0.00,JWX,2013-10-14 02:47:00,
2013-10-13 22:52:00,53.8,49.4,30.33,SSE,149,2.0,0.0,85,0.00,,,0.00,JWX,2013-10-14 02:52:00,
2013-10-13 22:57:00,54.2,49.4,30.33,SSE,152,2.0,0.0,84,0.00,,,0.00,JWX,2013-10-14 02:57:00,
2013-10-13 23:02:00,54.2,49.4,30.33,SSE,152,1.0,1.0,84,0.00,,,0.00,JWX,2013-10-14 03:02:00,
2013-10-13 23:07:00,54.1,49.4,30.33,SSE,152,0.0,0.0,84,0.00,,,0.00,JWX,2013-10-14 03:07:00,
2013-10-13 23:12:00,54.0,49.2,30.33,SSE,152,1.0,0.0,84,0.00,,,0.00,JWX,2013-10-14 03:12:00,
2013-10-13 23:17:00,53.9,49.6,30.33,SSE,150,1.0,0.0,85,0.00,,,0.00,JWX,2013-10-14 03:17:00,
2013-10-13 23:22:00,53.9,49.6,30.33,SSE,151,1.0,0.0,85,0.00,,,0.00,JWX,2013-10-14 03:22:00,
2013-10-13 23:27:00,53.9,49.2,30.33,SSE,154,2.0,0.0,84,0.00,,,0.00,JWX,2013-10-14 03:27:00,
2013-10-13 23:32:00,53.8,49.1,30.33,SSE,148,1.0,3.0,84,0.00,,,0.00,JWX,2013-10-14 03:32:00,
2013-10-13 23:37:00,53.6,49.2,30.33,SSE,149,0.0,0.0,85,0.00,,,0.00,JWX,2013-10-14 03:37:00,
2013-10-13 23:42:00,53.5,49.0,30.33,SSE,156,1.0,6.0,85,0.00,,,0.00,JWX,2013-10-14 03:42:00,
2013-10-13 23:47:00,53.6,49.2,30.33,SSE,155,2.0,0.0,85,0.00,,,0.00,JWX,2013-10-14 03:47:00,
2013-10-13 23:52:00,53.6,49.2,30.33,SSE,155,2.0,5.0,85,0.00,,,0.00,JWX,2013-10-14 03:52:00,
2013-10-13 23:57:00,53.6,49.5,30.33,SSE,157,2.0,3.0,86,0.00,,,0.00,JWX,2013-10-14 03:57:00,